This demonstration page uses our WeatherBlox Daily Observations layout. Learn more.

Left ArrowRight Arrow

Hourly Observations for January 14, 2019

Temp ( °F °C ) Dew Point ( °F °C ) Humidity (%) Winds ( mph kmh ) Pressure ( in mb ) Visibility ( mi km ) Precip ( " mm )
12:36 am 00:36 Cloudy 44 6.7 42 5.6 93 93 WNW 7 11 30.21 1023 10 16 0.00 0.00
12:53 am 00:53 Cloudy 44 6.7 42 5.6 93 93 WNW 7 11 30.21 1023 10 16 0.00 0.00
1:53 am 01:53 Cloudy 44 6.7 42 5.6 93 93 WNW 6 9 30.21 1023 10 16 0.00 0.00
2:03 am 02:03 Cloudy 44 6.7 42 5.6 93 93 NW 5 7 30.21 1023 10 16 0.00 0.00
2:53 am 02:53 Cloudy 44 6.7 41 5 89 89 WNW 6 9 30.22 1024 10 16 0.00 0.00
3:53 am 03:53 Cloudy 44 6.7 41 5 89 89 WNW 7 11 30.22 1024 10 16 0.00 0.00
4:53 am 04:53 Cloudy 43 6.1 41 5 93 93 NW 7 11 30.22 1024 10 16 0.00 0.00
5:08 am 05:08 Cloudy 43 6.1 41 5 93 93 NW 7 11 30.21 1023 10 16 0.00 0.00
5:15 am 05:15 Cloudy 43 6.1 40 4.4 89 89 NW 6 9 30.21 1023 10 16 0.00 0.00
5:53 am 05:53 Cloudy 43 6.1 40 4.4 89 89 NW 5 7 30.23 1024 10 16 0.00 0.00
6:53 am 06:53 Cloudy 43 6.1 39 3.9 86 86 WNW 7 11 30.25 1024 10 16 0.00 0.00
7:53 am 07:53 Cloudy 43 6.1 39 3.9 86 86 WNW 7 11 30.26 1025 10 16 0.00 0.00
8:53 am 08:53 Cloudy 42 5.6 39 3.9 89 89 WNW 13 20 30.26 1025 10 16 0.00 0.00
9:34 am 09:34 Cloudy 43 6.1 40 4.4 89 89 WNW 7 11 30.27 1025 10 16 0.00 0.00
9:53 am 09:53 Cloudy 43 6.1 39 3.9 86 86 NNW 9 15 30.28 1025 10 16 0.00 0.00
10:53 am 10:53 Cloudy 44 6.7 39 3.9 83 83 WNW 10 17 30.29 1026 10 16 0.00 0.00
11:53 am 11:53 Cloudy 45 7.2 39 3.9 80 80 NW 12 19 30.27 1025 10 16 0.00 0.00
12:53 pm 12:53 Cloudy 45 7.2 39 3.9 80 80 WNW 12 19 30.24 1024 10 16 0.00 0.00
1:53 pm 13:53 Cloudy 44 6.7 38 3.3 79 79 NNW 7 11 30.23 1024 10 16 0.00 0.00
2:53 pm 14:53 Cloudy 44 6.7 37 2.8 76 76 NNW 12 19 30.23 1024 10 16 0.00 0.00
3:53 pm 15:53 Cloudy 45 7.2 37 2.8 74 74 WNW 10 17 30.23 1024 10 16 0.00 0.00
4:53 pm 16:53 Cloudy 44 6.7 36 2.2 73 73 NW 5 7 30.22 1024 10 16 0.00 0.00
5:53 pm 17:53 Cloudy 44 6.7 36 2.2 73 73 NNW 7 11 30.24 1024 10 16 0.00 0.00
6:53 pm 18:53 Cloudy 43 6.1 36 2.2 76 76 N 8 13 30.25 1024 10 16 0.00 0.00
7:53 pm 19:53 Cloudy 42 5.6 35 1.7 76 76 NNW 12 19 30.25 1024 10 16 0.00 0.00
8:53 pm 20:53 Cloudy 41 5 35 1.7 79 79 NNW 8 13 30.24 1024 10 16 0.00 0.00
9:53 pm 21:53 Cloudy 40 4.4 34 1.1 79 79 NNW 10 17 30.25 1024 10 16 0.00 0.00
10:53 pm 22:53 Cloudy 40 4.4 33 0.6 77 77 NW 12 19 30.26 1025 10 16 0.00 0.00
11:53 pm 23:53 Cloudy 39 3.9 33 0.6 79 79 NW 6 9 30.25 1025 10 16 0.00 0.00

Powered by AerisWeather